Robstown, TX

4:29 AM CST on January 22, 2017 (GMT -0600)
Robstown

Weather History for KRBO - June, 2013

Change the Weather History Date:

Sunday, June 16, 2013

  Actual Average (KCRP) Record (KCRP)
Temperature  
Mean Temperature 86 °F -  
Max Temperature 96 °F 89 °F 97 °F (2013)
Min Temperature 77 °F 72 °F 66 °F (1903)
Cooling Degree Days 22    
Growing Degree Days 36 (Base 50)    
Moisture  
Dew Point 75 °F    
Average Humidity 71    
Maximum Humidity 91    
Minimum Humidity 48    
Precipitation  
Precipitation 0.05 in - - ()
Sea Level Pressure  
Sea Level Pressure 29.95 in    
Wind  
Wind Speed 10 mph (SSE)    
Max Wind Speed 24 mph    
Max Gust Speed 29 mph    
Visibility 10 miles    
Events Rain , Thunderstorm    
Averages and records for this station are not official NWS values.
T = Trace of Precipitation, MM = Missing Value Source: NWS Daily Summary

Daily Weather History Graph

Daily Weather History Graph

Search for Another Location

Airport or City:

Trip Planner

Search our weather history database for the weather conditions in past years. The results will help you decide how hot, cold, wet, or windy it might be!

Date:

Astronomy

Jun. 16, 2013 Rise Set
Actual Time 6:34 AM CDT 8:28 PM CDT
Civil Twilight 6:08 AM CDT 8:55 PM CDT
Nautical Twilight 5:35 AM CDT 9:27 PM CDT
Astronomical Twilight 5:01 AM CDT 10:01 PM CDT
Moon 1:35 PM CDT (6/16) 1:07 AM CDT (6/16)
Length of Visible Light 14h 47m
Length of Day
13h 53m
Waxing Crescent, 50% of the Moon is Illuminated
Jun 16
Waxing Crescent
Jun 16
First Quarter
Jun 23
Full
Jun 29
Last Quarter
Jul 8
New

Hourly Weather History & Observations

Time (CDT) Temp. Heat Index Dew Point Humidity Pressure Visibility Wind Dir Wind Speed Gust Speed Precip Events Conditions
12:15 AM 81.9 °F 88.7 °F 75.6 °F 81% 29.96 in 10.0 mi SE 11.5 mph - N/A   Clear
12:35 AM 81.7 °F 88.3 °F 75.4 °F 81% 29.96 in 10.0 mi SE 8.1 mph - N/A   Clear
12:55 AM 81.5 °F 88.0 °F 75.4 °F 82% 29.96 in 10.0 mi SE 9.2 mph - N/A   Scattered Clouds
1:15 AM 81.3 °F 87.6 °F 75.4 °F 82% 29.96 in 10.0 mi SSE 9.2 mph - N/A   Scattered Clouds
1:35 AM 81.1 °F 87.4 °F 75.4 °F 83% 29.96 in 10.0 mi SSE 8.1 mph - N/A   Scattered Clouds
1:55 AM 80.8 °F 86.5 °F 75.2 °F 83% 29.95 in 10.0 mi SSE 8.1 mph - N/A   Scattered Clouds
2:15 AM 80.6 °F 86.2 °F 75.4 °F 84% 29.95 in 10.0 mi SE 6.9 mph - N/A   Scattered Clouds
2:35 AM 80.1 °F 85.2 °F 75.4 °F 86% 29.95 in 10.0 mi SE 6.9 mph - N/A   Clear
2:55 AM 80.1 °F 85.2 °F 75.4 °F 86% 29.94 in 10.0 mi SSE 6.9 mph - N/A   Clear
3:15 AM 80.1 °F 85.1 °F 75.2 °F 85% 29.94 in 10.0 mi SSE 6.9 mph - N/A   Clear
3:35 AM 80.1 °F 85.1 °F 75.2 °F 85% 29.93 in 10.0 mi South 8.1 mph - N/A   Clear
3:55 AM 80.1 °F 84.9 °F 74.8 °F 84% 29.93 in 10.0 mi SSE 6.9 mph - N/A   Clear
4:15 AM 79.7 °F - 74.7 °F 84% 29.93 in 10.0 mi SSE 6.9 mph - N/A   Clear
4:35 AM 79.3 °F - 74.5 °F 85% 29.93 in 10.0 mi SSE 6.9 mph - N/A   Clear
4:55 AM 78.8 °F - 74.3 °F 86% 29.93 in 10.0 mi SSE 4.6 mph - N/A   Clear
5:15 AM 78.1 °F - 74.3 °F 88% 29.93 in 10.0 mi SSE 5.8 mph - N/A   Clear
5:35 AM 78.3 °F - 74.5 °F 88% 29.93 in 10.0 mi SSE 6.9 mph - N/A   Clear
5:55 AM 78.4 °F - 74.7 °F 88% 29.94 in 10.0 mi Calm Calm - N/A   Clear
6:15 AM 78.4 °F - 74.7 °F 88% 29.94 in 10.0 mi SE 4.6 mph - N/A   Clear
6:35 AM 77.2 °F - 73.9 °F 90% 29.95 in 10.0 mi Calm Calm - N/A   Clear
6:55 AM 77.0 °F - 74.3 °F 91% 29.96 in 10.0 mi Calm Calm - N/A   Clear
7:15 AM 78.3 °F - 75.0 °F 90% 29.96 in 10.0 mi Calm Calm - N/A   Clear
7:35 AM 80.1 °F 85.2 °F 75.6 °F 86% 29.97 in 10.0 mi Calm Calm - N/A   Clear
7:55 AM 81.5 °F 88.5 °F 76.1 °F 84% 29.97 in 10.0 mi ESE 5.8 mph - N/A   Clear
8:15 AM 83.3 °F 92.1 °F 76.5 °F 80% 29.98 in 10.0 mi SSE 8.1 mph - N/A   Clear
8:35 AM 84.4 °F 93.9 °F 76.6 °F 77% 29.99 in 10.0 mi SSE 10.4 mph - N/A   Clear
8:55 AM 86.0 °F 96.0 °F 76.1 °F 72% 29.99 in 10.0 mi South 11.5 mph 17.3 mph N/A   Mostly Cloudy
9:15 AM 86.2 °F 95.5 °F 75.2 °F 70% 29.99 in 10.0 mi South 13.8 mph - N/A   Mostly Cloudy
9:35 AM 88.0 °F 97.5 °F 75.0 °F 65% 30.00 in 10.0 mi South 15.0 mph - N/A   Mostly Cloudy
9:55 AM 87.8 °F 96.6 °F 74.3 °F 64% 30.00 in 10.0 mi South 15.0 mph 18.4 mph N/A   Mostly Cloudy
10:15 AM 89.1 °F 98.0 °F 74.1 °F 61% 29.99 in 10.0 mi SSE 12.7 mph 21.9 mph N/A   Mostly Cloudy
10:35 AM 89.1 °F 98.5 °F 74.3 °F 62% 29.99 in 10.0 mi South 12.7 mph - N/A   Mostly Cloudy
10:55 AM 90.7 °F 100.1 °F 74.1 °F 58% 29.99 in 10.0 mi SSE 11.5 mph 17.3 mph N/A   Mostly Cloudy
11:15 AM 90.3 °F 99.9 °F 74.3 °F 59% 29.99 in 10.0 mi SSE 9.2 mph 17.3 mph N/A   Overcast
11:35 AM 86.5 °F 96.4 °F 75.7 °F 70% 29.99 in 5.0 mi South 4.6 mph - 0.05 in Rain Light Rain
11:55 AM 88.3 °F 98.9 °F 75.7 °F 66% 29.99 in 10.0 mi SE 11.5 mph - N/A   Overcast
12:15 PM 88.3 °F 96.9 °F 73.9 °F 62% 29.99 in 10.0 mi SSW 13.8 mph 19.6 mph N/A   Overcast
12:35 PM 90.3 °F 100.4 °F 74.8 °F 60% 29.98 in 10.0 mi South 12.7 mph - N/A   Overcast
12:55 PM 92.8 °F 103.4 °F 74.5 °F 55% 29.98 in 10.0 mi South 12.7 mph 23.0 mph N/A   Mostly Cloudy
1:15 PM 94.1 °F 104.5 °F 73.9 °F 52% 29.97 in 10.0 mi SSE 13.8 mph 17.3 mph N/A   Scattered Clouds
1:35 PM 95.4 °F 105.4 °F 73.4 °F 49% 29.96 in 10.0 mi South 11.5 mph 17.3 mph N/A Thunderstorm Scattered Clouds
1:55 PM 95.5 °F 105.1 °F 73.0 °F 48% 29.96 in 10.0 mi South 12.7 mph 18.4 mph N/A   Scattered Clouds
2:15 PM 96.1 °F 107.1 °F 74.3 °F 49% 29.95 in 10.0 mi SE 18.4 mph 24.2 mph N/A   Scattered Clouds
2:35 PM 96.1 °F 107.1 °F 74.3 °F 49% 29.94 in 10.0 mi SE 12.7 mph 19.6 mph N/A   Scattered Clouds
2:55 PM 95.5 °F 106.5 °F 74.3 °F 50% 29.94 in 10.0 mi SE 15.0 mph 24.2 mph N/A   Mostly Cloudy
3:15 PM 95.2 °F 106.4 °F 74.3 °F 51% 29.93 in 10.0 mi SE 15.0 mph 23.0 mph N/A   Scattered Clouds
3:35 PM 95.9 °F 107.4 °F 74.3 °F 50% 29.93 in 10.0 mi SE 21.9 mph 25.3 mph N/A   Mostly Cloudy
3:55 PM 93.4 °F 102.8 °F 73.6 °F 52% 29.93 in 10.0 mi SE 17.3 mph 25.3 mph N/A   Mostly Cloudy
4:15 PM 92.8 °F 103.4 °F 74.3 °F 55% 29.92 in 10.0 mi SE 24.2 mph 28.8 mph N/A   Overcast
4:35 PM 91.9 °F 101.3 °F 73.9 °F 55% 29.93 in 10.0 mi SE 15.0 mph - N/A   Mostly Cloudy
4:55 PM 91.0 °F 99.8 °F 73.6 °F 56% 29.93 in 10.0 mi SE 18.4 mph 24.2 mph N/A   Scattered Clouds
5:15 PM 89.8 °F 99.2 °F 74.3 °F 60% 29.92 in 10.0 mi SE 19.6 mph 26.5 mph N/A   Scattered Clouds
5:35 PM 89.2 °F 96.9 °F 72.9 °F 58% 29.93 in 10.0 mi SE 18.4 mph 24.2 mph N/A   Clear
5:55 PM 88.3 °F 96.4 °F 73.6 °F 61% 29.93 in 10.0 mi SE 19.6 mph - N/A   Clear
6:15 PM 87.6 °F 95.7 °F 73.6 °F 63% 29.92 in 10.0 mi SE 19.6 mph - N/A   Clear
6:35 PM 86.5 °F 95.0 °F 74.3 °F 67% 29.92 in 10.0 mi ESE 18.4 mph 24.2 mph N/A   Clear
6:55 PM 86.5 °F 93.8 °F 73.2 °F 64% 29.92 in 10.0 mi SE 15.0 mph 20.7 mph N/A   Clear
7:15 PM 87.1 °F 95.4 °F 73.9 °F 65% 29.92 in 10.0 mi SE 20.7 mph 26.5 mph N/A   Clear
7:35 PM 87.1 °F 95.4 °F 73.9 °F 65% 29.92 in 10.0 mi SE 20.7 mph 24.2 mph N/A   Clear
7:55 PM 86.2 °F 93.8 °F 73.4 °F 66% 29.93 in 10.0 mi SE 19.6 mph 25.3 mph N/A   Clear
8:15 PM 85.5 °F 93.4 °F 74.3 °F 69% 29.93 in 10.0 mi SE 17.3 mph 23.0 mph N/A   Clear
8:35 PM 84.7 °F 92.8 °F 74.7 °F 72% 29.92 in 10.0 mi SE 18.4 mph 25.3 mph N/A   Clear
8:55 PM 84.2 °F 91.9 °F 74.7 °F 73% 29.92 in 10.0 mi SSE 16.1 mph 23.0 mph N/A   Clear
9:15 PM 83.8 °F 91.4 °F 74.7 °F 74% 29.93 in 10.0 mi SSE 13.8 mph 23.0 mph N/A   Clear
9:35 PM 83.3 °F 90.8 °F 74.8 °F 76% 29.94 in 10.0 mi SE 12.7 mph 16.1 mph N/A   Clear
9:55 PM 82.9 °F 90.2 °F 75.2 °F 77% 29.94 in 10.0 mi SE 11.5 mph - N/A   Clear
10:15 PM 82.8 °F 90.1 °F 75.2 °F 78% 29.95 in 10.0 mi SE 12.7 mph - N/A   Clear
10:35 PM 82.6 °F 89.9 °F 75.4 °F 79% 29.96 in 10.0 mi SSE 9.2 mph - N/A   Clear
10:55 PM 82.4 °F 89.5 °F 75.4 °F 79% 29.96 in 10.0 mi SE 10.4 mph - N/A   Clear
11:15 PM 82.4 °F 89.8 °F 75.6 °F 80% 29.96 in 10.0 mi SSE 13.8 mph - N/A   Clear
11:35 PM 81.9 °F 88.7 °F 75.6 °F 81% 29.96 in 10.0 mi SE 11.5 mph - N/A   Clear
11:55 PM 81.7 °F 88.5 °F 75.6 °F 82% 29.97 in 10.0 mi SSE 3.5 mph - N/A   Clear